When you browse on this site, cookies collect data to enhance your experience and personalize the content and advertising you see.
Visit our Privacy Policy to learn more. By continuing to use the site, you agree to this use of cookies and data.
  • In Lithuania
  • List of Countries
  • For 7 days
  • Water Temperature
  • Satellite Maps
  • Weather Map
  • Weather Widgets
  • user-avatar
    Login

    Hourly Weather Ciudad Bolívar

    Today, 17 December, Monday

    Time Temperature Precipitation Wind Pressure Humidity
    00:00 +27°C° 0 mm 4 mps 754 mmHg 76%
    01:00 +26°C° 0 mm 4 mps 754 mmHg 78%
    02:00 +26°C° 0 mm 4 mps 754 mmHg 81%
    03:00 +25°C° 0 mm 3 mps 754 mmHg 83%
    04:00 +25°C° 0 mm 3 mps 754 mmHg 85%
    05:00 +25°C° 0 mm 2 mps 754 mmHg 87%
    06:00 +25°C° 0 mm 3 mps 755 mmHg 83%
    07:00 +26°C° 0 mm 3 mps 755 mmHg 78%
    08:00 +27°C° 0 mm 3 mps 756 mmHg 74%
    09:00 +29°C° 0 mm 4 mps 756 mmHg 64%
    10:00 +32°C° 0 mm 4 mps 756 mmHg 55%
    11:00 +34°C° 0 mm 4 mps 756 mmHg 46%
    12:00 +35°C° 0 mm 4 mps 755 mmHg 43%
    13:00 +36°C° 0 mm 4 mps 754 mmHg 39%
    14:00 +37°C° 0 mm 4 mps 753 mmHg 36%
    15:00 +36°C° 0 mm 4 mps 753 mmHg 37%
    16:00 +36°C° 0 mm 4 mps 752 mmHg 38%
    17:00 +35°C° 0 mm 4 mps 752 mmHg 39%
    18:00 +34°C° 0 mm 4 mps 752 mmHg 44%
    19:00 +32°C° 0 mm 4 mps 752 mmHg 49%
    20:00 +30°C° 0 mm 4 mps 753 mmHg 54%
    21:00 +29°C° 0 mm 4 mps 753 mmHg 59%
    22:00 +28°C° 0 mm 4 mps 754 mmHg 64%
    23:00 +28°C° 0 mm 4 mps 754 mmHg 69%

    Tomorrow, 18 December, Tuesday

    Time Temperature Precipitation Wind Pressure Humidity
    00:00 +27°C° 0 mm 4 mps 754 mmHg 73%
    01:00 +27°C° 0 mm 4 mps 754 mmHg 76%
    02:00 +26°C° 0 mm 3 mps 754 mmHg 79%
    03:00 +26°C° 0 mm 3 mps 754 mmHg 82%
    04:00 +25°C° 0 mm 3 mps 753 mmHg 84%
    05:00 +25°C° 0 mm 3 mps 753 mmHg 86%
    06:00 +26°C° 0 mm 3 mps 754 mmHg 82%
    07:00 +26°C° 0 mm 3 mps 755 mmHg 78%
    08:00 +27°C° 0 mm 3 mps 755 mmHg 74%
    09:00 +29°C° 0 mm 4 mps 755 mmHg 65%
    10:00 +32°C° 0 mm 4 mps 755 mmHg 55%
    11:00 +34°C° 0 mm 4 mps 755 mmHg 46%
    12:00 +35°C° 0 mm 4 mps 754 mmHg 43%
    13:00 +36°C° 0 mm 4 mps 753 mmHg 39%
    14:00 +37°C° 0 mm 4 mps 752 mmHg 36%
    15:00 +37°C° 0 mm 4 mps 751 mmHg 37%
    16:00 +36°C° 0 mm 4 mps 751 mmHg 38%
    17:00 +36°C° 0 mm 4 mps 750 mmHg 40%
    18:00 +34°C° 0 mm 4 mps 751 mmHg 48%
    19:00 +32°C° 0 mm 5 mps 752 mmHg 55%
    20:00 +30°C° 0 mm 5 mps 752 mmHg 63%
    21:00 +29°C° 0 mm 5 mps 753 mmHg 67%
    22:00 +28°C° 0 mm 5 mps 753 mmHg 71%
    23:00 +28°C° 0 mm 5 mps 754 mmHg 74%

    Day after tomorrow, 19 December, Wednesday

    Time Temperature Precipitation Wind Pressure Humidity
    00:00 +27°C° 0 mm 4 mps 754 mmHg 76%
    01:00 +27°C° 0 mm 4 mps 753 mmHg 78%
    02:00 +27°C° 0 mm 3 mps 753 mmHg 80%
    03:00 +26°C° 0 mm 3 mps 753 mmHg 82%
    04:00 +26°C° 0 mm 3 mps 753 mmHg 83%
    05:00 +26°C° 0 mm 3 mps 753 mmHg 85%
    06:00 +26°C° 0 mm 3 mps 754 mmHg 82%
    07:00 +27°C° 0 mm 3 mps 754 mmHg 78%
    08:00 +28°C° 0 mm 4 mps 755 mmHg 75%
    09:00 +29°C° 0 mm 4 mps 755 mmHg 68%
    10:00 +32°C° 0 mm 4 mps 755 mmHg 61%
    11:00 +33°C° 0 mm 4 mps 755 mmHg 54%
    12:00 +34°C° 0 mm 4 mps 754 mmHg 51%
    13:00 +35°C° 0 mm 4 mps 753 mmHg 48%
    14:00 +35°C° 0 mm 4 mps 751 mmHg 46%
    15:00 +35°C° 0 mm 4 mps 751 mmHg 47%
    16:00 +35°C° 0 mm 4 mps 751 mmHg 48%
    17:00 +34°C° 0 mm 5 mps 750 mmHg 49%
    18:00 +33°C° 0 mm 5 mps 751 mmHg 56%
    19:00 +32°C° 0 mm 5 mps 751 mmHg 62%
    20:00 +29°C° 0 mm 5 mps 752 mmHg 69%
    21:00 +29°C° 0 mm 5 mps 752 mmHg 72%
    22:00 +28°C° 0 mm 5 mps 753 mmHg 75%
    23:00 +27°C° 0 mm 5 mps 753 mmHg 78%

    20 December, Thursday

    Time Temperature Precipitation Wind Pressure Humidity
    00:00 +27°C° 0 mm 4 mps 753 mmHg 80%
    01:00 +27°C° 0 mm 4 mps 753 mmHg 82%
    02:00 +26°C° 0 mm 4 mps 752 mmHg 83%
    03:00 +26°C° 0 mm 3 mps 752 mmHg 84%
    04:00 +26°C° 0 mm 3 mps 752 mmHg 85%
    05:00 +26°C° 0 mm 3 mps 752 mmHg 86%
    06:00 +26°C° 0 mm 4 mps 753 mmHg 82%
    07:00 +27°C° 0 mm 4 mps 754 mmHg 78%
    08:00 +28°C° 0 mm 4 mps 754 mmHg 75%
    09:00 +29°C° 0 mm 5 mps 754 mmHg 68%
    10:00 +32°C° 0 mm 5 mps 754 mmHg 61%
    11:00 +33°C° 0 mm 5 mps 754 mmHg 55%
    12:00 +34°C° 0 mm 5 mps 753 mmHg 51%
    13:00 +35°C° 0 mm 4 mps 752 mmHg 48%
    14:00 +36°C° 0 mm 4 mps 751 mmHg 45%
    15:00 +35°C° 0 mm 4 mps 751 mmHg 46%
    16:00 +35°C° 0 mm 5 mps 750 mmHg 48%
    17:00 +34°C° 0 mm 5 mps 750 mmHg 49%
    18:00 +33°C° 0 mm 5 mps 751 mmHg 54%
    19:00 +32°C° 0 mm 5 mps 751 mmHg 58%
    20:00 +30°C° 0 mm 5 mps 752 mmHg 63%
    21:00 +29°C° 0 mm 5 mps 752 mmHg 67%
    22:00 +28°C° 0 mm 5 mps 753 mmHg 71%
    23:00 +28°C° 0 mm 5 mps 753 mmHg 75%

    21 December, Friday

    Time Temperature Precipitation Wind Pressure Humidity
    00:00 +27°C° 0 mm 4 mps 753 mmHg 78%
    01:00 +27°C° 0 mm 4 mps 752 mmHg 80%
    02:00 +26°C° 0 mm 3 mps 752 mmHg 83%
    03:00 +26°C° 0 mm 3 mps 752 mmHg 84%
    04:00 +26°C° 0 mm 3 mps 752 mmHg 86%
    05:00 +25°C° 0 mm 3 mps 752 mmHg 87%
    06:00 +26°C° 0 mm 3 mps 753 mmHg 83%
    07:00 +27°C° 0 mm 4 mps 753 mmHg 78%
    08:00 +28°C° 0 mm 4 mps 754 mmHg 73%
    09:00 +29°C° 0 mm 4 mps 754 mmHg 64%
    10:00 +32°C° 0 mm 5 mps 754 mmHg 55%
    11:00 +34°C° 0 mm 5 mps 754 mmHg 46%
    12:00 +35°C° 0 mm 5 mps 753 mmHg 43%
    13:00 +36°C° 0 mm 5 mps 752 mmHg 40%
    14:00 +37°C° 0 mm 5 mps 751 mmHg 36%
    15:00 +37°C° 0 mm 5 mps 751 mmHg 37%
    16:00 +36°C° 0 mm 5 mps 750 mmHg 38%
    17:00 +36°C° 0 mm 5 mps 750 mmHg 40%
    18:00 +34°C° 0 mm 5 mps 751 mmHg 44%
    19:00 +33°C° 0 mm 5 mps 751 mmHg 49%
    20:00 +32°C° 0 mm 5 mps 752 mmHg 53%
    21:00 +30°C° 0 mm 5 mps 752 mmHg 58%
    22:00 +29°C° 0 mm 5 mps 752 mmHg 63%
    23:00 +28°C° 0 mm 5 mps 753 mmHg 68%

    22 December, Saturday

    Time Temperature Precipitation Wind Pressure Humidity
    00:00 +27°C° 0 mm 5 mps 753 mmHg 71%
    01:00 +27°C° 0 mm 4 mps 752 mmHg 75%
    02:00 +26°C° 0 mm 4 mps 752 mmHg 79%
    03:00 +26°C° 0 mm 4 mps 752 mmHg 81%
    04:00 +25°C° 0 mm 3 mps 752 mmHg 83%
    05:00 +25°C° 0 mm 3 mps 753 mmHg 85%
    06:00 +26°C° 0 mm 4 mps 753 mmHg 81%
    07:00 +26°C° 0 mm 4 mps 754 mmHg 77%
    08:00 +27°C° 0 mm 4 mps 754 mmHg 74%
    09:00 +29°C° 0 mm 4 mps 754 mmHg 64%
    10:00 +32°C° 0 mm 5 mps 754 mmHg 55%
    11:00 +34°C° 0 mm 5 mps 754 mmHg 46%
    12:00 +35°C° 0 mm 4 mps 753 mmHg 41%
    13:00 +36°C° 0 mm 4 mps 752 mmHg 37%
    14:00 +37°C° 0 mm 4 mps 751 mmHg 32%
    15:00 +36°C° 0 mm 4 mps 751 mmHg 33%
    16:00 +36°C° 0 mm 4 mps 751 mmHg 33%
    17:00 +35°C° 0 mm 4 mps 750 mmHg 34%
    18:00 +34°C° 0 mm 4 mps 751 mmHg 39%
    19:00 +33°C° 0 mm 4 mps 751 mmHg 43%
    20:00 +30°C° 0 mm 4 mps 752 mmHg 48%
    21:00 +29°C° 0 mm 4 mps 752 mmHg 53%
    22:00 +29°C° 0 mm 4 mps 752 mmHg 58%
    23:00 +28°C° 0 mm 4 mps 753 mmHg 63%
    Show more